COSMOS 886 DEB *, 9799

Orbit data source: Space-Track

COSMOS 886 DEB *, 9799 is space debris in LEO originally from a launch on Mon, 27 Dec 1976 UTC launched from the Tyuratam Missile And Space Complex (TTMTR). Debris objects in space refer to the collection of defunct objects orbiting the Earth. Examples of debris include non-operational satellites, rocket bodies, and fragments generated from explosions, collisions, or faulty payload assembly.

Loading next visibility...
Identifier
9799, 1976-126Z
Orbit
LEO
Country
Flag of CISCIS
Related business
Manufacturer
Unknown
Mission
Spacecraft
Bus & Motor
Unknown
Mass
Unknown
Launch date (UTC)
1976-12-27 (49 years ago)
Launch vehicle
Unknown
Launch site
Tyuratam Missile And Space Complex (TTMTR)
Object type
Payload
Rocket body
Debris
Shape & HBR
Unknown shape, 0.1 m
Radar Cross Section
Medium (>0.1 m² and <1 m²)

Expand to show TLE details & history
Last TLE update: 1 day ago

TLE from 1 day ago
0 COSMOS 886 DEB *
1 09799U 76126Z   26174.69265668  .00000083  00000-0  74124-4 0  9997
2 09799  65.6067 318.3439 1011366 285.5592  63.6136 12.79722667650376
Epoch: 2026-06-23T16:37Z
TLE epoch observation values (Epoch: 2026-06-23T16:37:25.537Z)
Latitude
0.00001°
Longitude
157.12693°
Altitude
1,064.96 km
Speed
7.451 km/s
True Right ascension
21h 13m 22s
True Declination
0° 00' 00"
Sunlit
Object was in full shadow at epoch
Visualization orbit readout
Latitude
Unknown
Longitude
Unknown
Altitude
Unknown
Speed
Unknown
Apparent Right ascension
Unknown
Apparent Declination
Unknown
Sunlit
N/A
Visualization observer readout
Local Sidereal Time
08:01:54
Azimuth
Unknown
Elevation
Unknown
Doppler factor
Unknown
Orbital elements
Apogee altitude
2,121.881 km
Perigee altitude
560.471 km
Semi-major axis
7,719.313 km
Eccentricity
0.10114
Inclination
65.6067°
RAAN
318.3439°
Arg. of periapsis
285.5592°
True anomaly
74.5449°
Mean anomaly
63.6136°
Eccentric anomaly
69.0243°
Mean motion
3.20019 °/min
Orbital period
112.49 mins
BSTAR
0.000074124
Loading maneuver chart data...
Computing Atmospheric mass density...

Documentation

Showing up to 5 results
|